Weather History for Reading, PA

Change the Weather History Date:

Monday, February 25, 2013

  Actual Average Record
Temperature  
Mean Temperature 38 °F 35 °F  
Max Temperature 46 °F 44 °F 77 °F (1985)
Min Temperature 29 °F 25 °F 2 °F (1914)
Degree Days  
Heating Degree Days 27 30  
Month to date heating degree days 836 828  
Since 1 July heating degree days 3635 3953  
Cooling Degree Days 0 0  
Month to date cooling degree days 0 0  
Year to date cooling degree days 0 0  
Moisture  
Dew Point 23 °F    
Average Humidity 55    
Maximum Humidity 69    
Minimum Humidity 40    
Precipitation  
Precipitation 0.00 in 0.08 in 1.75 in (1990)
Month to date precipitation 1.12 2.20  
Year to date precipitation 4.64 5.25  
Sea Level Pressure  
Sea Level Pressure 30.17 in    
Wind  
Wind Speed 5 mph (NNW)    
Max Wind Speed 15 mph    
Max Gust Speed 18 mph    
Visibility 10 miles    
Events      
T = Trace of Precipitation, MM = Missing Value Source: NWS Daily Summary

Daily Weather History Graph

Daily Weather History Graph

Search for Another Location

Airport:

Trip Planner

Search our weather history database for the weather conditions in past years. The results will help you decide how hot, cold, wet, or windy it might be!

Date:

Astronomy

Feb. 25, 2013 Rise Set
Actual Time 6:43 AM EST 5:51 PM EST
Civil Twilight 6:15 AM EST 6:18 PM EST
Nautical Twilight 5:44 AM EST 6:50 PM EST
Astronomical Twilight 5:12 AM EST 7:21 PM EST
Moon 6:02 PM EST (2/25) 6:12 AM EST (2/25)
Length of Visible Light 12h 02m
Length of Day
11h 08m
Full, 100% of the Moon is Illuminated
Feb 25
Full
Feb 25
Full
Mar 4
Last Quarter
Mar 11
New
Mar 19
First Quarter

Hourly Weather History & Observations

Time (EST) Temp. Windchill Dew Point Humidity Pressure Visibility Wind Dir Wind Speed Gust Speed Precip Events Conditions
12:54 AM 33.1 °F 24.9 °F 19.0 °F 56% 30.08 in 10.0 mi WNW 10.4 mph - N/A   Overcast
1:54 AM 33.1 °F 26.9 °F 19.9 °F 59% 30.09 in 10.0 mi WNW 6.9 mph - N/A   Mostly Cloudy
2:54 AM 33.1 °F 26.1 °F 19.9 °F 59% 30.09 in 10.0 mi WNW 8.1 mph - N/A   Overcast
3:54 AM 30.9 °F - 19.9 °F 64% 30.11 in 10.0 mi Calm Calm - N/A   Overcast
4:54 AM 32.0 °F 27.5 °F 21.0 °F 64% 30.13 in 10.0 mi SSW 4.6 mph - N/A   Overcast
5:54 AM 32.0 °F 28.7 °F 21.0 °F 64% 30.14 in 10.0 mi WSW 3.5 mph - N/A   Overcast
6:54 AM 32.0 °F - 21.0 °F 64% 30.17 in 10.0 mi Calm Calm - N/A   Mostly Cloudy
7:13 AM 30.2 °F 22.6 °F 21.2 °F 69% 30.15 in 10.0 mi WNW 8.1 mph - N/A   Mostly Cloudy
7:25 AM 30.2 °F 25.4 °F 21.2 °F 69% 30.15 in 10.0 mi NW 4.6 mph - N/A   Mostly Cloudy
7:54 AM 33.1 °F 28.7 °F 21.9 °F 64% 30.18 in 10.0 mi WSW 4.6 mph - N/A   Overcast
8:41 AM 33.8 °F 25.8 °F 23.0 °F 65% 30.15 in 10.0 mi NW 10.4 mph - N/A   Mostly Cloudy
8:54 AM 36.0 °F 28.5 °F 23.0 °F 59% 30.17 in 10.0 mi NW 10.4 mph - N/A   Scattered Clouds
9:54 AM 39.0 °F 34.0 °F 25.0 °F 57% 30.19 in 10.0 mi North 6.9 mph - N/A   Partly Cloudy
10:54 AM 42.1 °F 36.6 °F 26.1 °F 53% 30.18 in 10.0 mi North 9.2 mph - N/A   Partly Cloudy
11:54 AM 43.0 °F 39.5 °F 26.1 °F 51% 30.19 in 10.0 mi NW 5.8 mph - N/A   Partly Cloudy
12:54 PM 44.1 °F 40.1 °F 25.0 °F 47% 30.17 in 10.0 mi NNE 6.9 mph - N/A   Mostly Cloudy
1:54 PM 45.0 °F 41.2 °F 24.1 °F 44% 30.17 in 10.0 mi North 6.9 mph - N/A   Mostly Cloudy
2:54 PM 45.0 °F 42.6 °F 24.1 °F 44% 30.17 in 10.0 mi East 4.6 mph - N/A   Overcast
3:54 PM 45.0 °F 40.6 °F 21.9 °F 40% 30.16 in 10.0 mi North 8.1 mph - N/A   Overcast
4:54 PM 44.1 °F 39.5 °F 24.1 °F 45% 30.17 in 10.0 mi ENE 8.1 mph - N/A   Overcast
5:54 PM 42.1 °F 38.4 °F 23.0 °F 47% 30.20 in 10.0 mi ENE 5.8 mph - N/A   Mostly Cloudy
6:54 PM 39.9 °F - 24.1 °F 53% 30.22 in 10.0 mi Calm Calm - N/A   Overcast
7:54 PM 37.9 °F 34.4 °F 23.0 °F 55% 30.23 in 10.0 mi NE 4.6 mph - N/A   Partly Cloudy
8:54 PM 37.9 °F 35.5 °F 21.9 °F 53% 30.24 in 10.0 mi ESE 3.5 mph - N/A   Clear
9:54 PM 34.0 °F 31.0 °F 23.0 °F 64% 30.25 in 10.0 mi NW 3.5 mph - N/A   Clear
10:54 PM 34.0 °F - 24.1 °F 67% 30.24 in 10.0 mi Calm Calm - N/A   Clear
11:54 PM 30.0 °F - 25.0 °F 82% 30.22 in 10.0 mi Calm Calm - N/A   Clear